Weather History for Fort Lewis, WA

Change the Weather History Date:

Saturday, August 10, 2013

  Actual Average Record
Temperature  
Mean Temperature 67 °F -  
Max Temperature 78 °F 78 °F 93 °F (1996)
Min Temperature 57 °F 53 °F 46 °F (2007)
Cooling Degree Days 2    
Growing Degree Days 17 (Base 50)    
Moisture  
Dew Point 58 °F    
Average Humidity 83    
Maximum Humidity 100    
Minimum Humidity 51    
Precipitation  
Precipitation 0.08 in - - ()
Sea Level Pressure  
Sea Level Pressure 29.97 in    
Wind  
Wind Speed 6 mph (SW)    
Max Wind Speed 12 mph    
Max Gust Speed -    
Visibility 9 miles    
Events Rain , Thunderstorm    
Averages and records for this station are not official NWS values.
T = Trace of Precipitation, MM = Missing Value Source: NWS Daily Summary

Daily Weather History Graph

Daily Weather History Graph

Search for Another Location

Airport:

Trip Planner

Search our weather history database for the weather conditions in past years. The results will help you decide how hot, cold, wet, or windy it might be!

Date:

Astronomy

Aug. 10, 2013 Rise Set
Actual Time 6:01 AM PDT 8:28 PM PDT
Civil Twilight 5:27 AM PDT 9:02 PM PDT
Nautical Twilight 4:44 AM PDT 9:45 PM PDT
Astronomical Twilight 3:55 AM PDT 10:34 PM PDT
Moon 10:13 AM PDT (8/10) 9:51 PM PDT (8/10)
Length of Visible Light 15h 35m
Length of Day
14h 27m
Waxing Crescent, 15% of the Moon is Illuminated
Aug 10
Waxing Crescent
Aug 14
First Quarter
Aug 20
Full
Aug 28
Last Quarter
Sep 5
New

Hourly Weather History & Observations

Time (PDT) Temp. Dew Point Humidity Pressure Visibility Wind Dir Wind Speed Gust Speed Precip Events Conditions
12:12 AM 64.4 °F 59.0 °F 83% 29.94 in 5.0 mi South 4.6 mph - N/A Rain , Thunderstorm Light Thunderstorms and Rain
12:13 AM 64.4 °F 59.0 °F 83% 29.91 in 10.0 mi Variable 5.8 mph - N/A Thunderstorm Thunderstorm
12:20 AM 64.4 °F 59.0 °F 83% 29.91 in 3.0 mi Variable 5.8 mph - N/A Rain , Thunderstorm Light Thunderstorms and Rain
12:21 AM 64.4 °F 59.0 °F 83% 29.90 in 9.0 mi West 5.8 mph - N/A Thunderstorm Thunderstorm
12:34 AM 64.4 °F 60.8 °F 88% 29.91 in 5.0 mi West 5.8 mph - N/A Thunderstorm Mostly Cloudy
12:45 AM 62.6 °F 60.8 °F 94% 29.93 in 10.0 mi Variable 2.3 mph - N/A Thunderstorm Thunderstorm
12:58 AM 63.3 °F 60.8 °F 91% 29.95 in 10.0 mi North 6.9 mph - 0.07 in Thunderstorm Thunderstorm
1:00 AM 62.6 °F 60.8 °F 94% 29.94 in 10.0 mi NNW 8.1 mph - N/A   Mostly Cloudy
1:58 AM 61.5 °F 59.9 °F 94% 29.95 in 10.0 mi WNW 4.6 mph - N/A   Mostly Cloudy
2:50 AM 59.0 °F 59.0 °F 100% 29.93 in 10.0 mi West 5.8 mph - N/A   Partly Cloudy
2:58 AM 59.4 °F 58.1 °F 96% 29.94 in 10.0 mi WSW 4.6 mph - N/A   Partly Cloudy
3:13 AM 59.0 °F 57.2 °F 94% 29.94 in 10.0 mi SSW 4.6 mph - N/A   Mostly Cloudy
3:38 AM 59.0 °F 57.2 °F 94% 29.93 in 10.0 mi SSW 5.8 mph - N/A   Mostly Cloudy
3:48 AM 59.0 °F 57.2 °F 94% 29.92 in 10.0 mi South 4.6 mph - N/A   Mostly Cloudy
3:58 AM 58.3 °F 57.2 °F 96% 29.94 in 10.0 mi SE 4.6 mph - N/A   Mostly Cloudy
4:03 AM 57.2 °F 57.2 °F 100% 29.93 in 10.0 mi SE 4.6 mph - N/A   Scattered Clouds
4:18 AM 57.2 °F 57.2 °F 100% 29.94 in 10.0 mi SE 5.8 mph - N/A   Mostly Cloudy
4:58 AM 58.6 °F 58.1 °F 98% 29.95 in 10.0 mi South 4.6 mph - N/A   Overcast
5:23 AM 59.0 °F 59.0 °F 100% 29.95 in 10.0 mi Variable 1.2 mph - N/A   Overcast
5:58 AM 58.8 °F 58.3 °F 98% 29.96 in 10.0 mi WSW 4.6 mph - N/A   Overcast
6:08 AM 59.0 °F 59.0 °F 100% 29.96 in 3.0 mi Variable 6.9 mph - N/A   Overcast
6:43 AM 59.0 °F 57.2 °F 94% 29.96 in 5.0 mi South 9.2 mph - N/A   Overcast
6:48 AM 57.2 °F 57.2 °F 100% 29.96 in 7.0 mi SSW 5.8 mph - N/A   Overcast
6:58 AM 57.7 °F 56.1 °F 94% 29.97 in 10.0 mi SSW 8.1 mph - N/A   Overcast
7:58 AM 58.6 °F 56.3 °F 92% 30.00 in 10.0 mi SSE 3.5 mph - N/A   Overcast
8:13 AM 59.0 °F 57.2 °F 94% 30.00 in 10.0 mi SE 1.2 mph - N/A   Overcast
8:43 AM 60.8 °F 57.2 °F 88% 29.99 in 10.0 mi SW 5.8 mph - N/A   Overcast
8:58 AM 61.3 °F 57.4 °F 87% 30.01 in 10.0 mi Variable 2.3 mph - N/A   Overcast
9:58 AM 61.9 °F 58.3 °F 88% 30.02 in 10.0 mi SW 6.9 mph - N/A   Overcast
10:03 AM 62.6 °F 57.2 °F 82% 30.01 in 10.0 mi SSW 6.9 mph - N/A   Overcast
10:53 AM 62.6 °F 59.0 °F 88% 30.01 in 10.0 mi Variable 4.6 mph - N/A   Overcast
10:58 AM 63.5 °F 59.0 °F 85% 30.02 in 10.0 mi Variable 5.8 mph - 0.01 in   Overcast
11:18 AM 64.4 °F 59.0 °F 83% 30.01 in 10.0 mi SSW 5.8 mph - N/A   Overcast
11:58 AM 67.1 °F 60.1 °F 78% 30.02 in 10.0 mi SSE 5.8 mph - N/A   Overcast
12:23 PM 69.8 °F 60.8 °F 73% 30.01 in 10.0 mi Variable 3.5 mph - N/A   Overcast
12:58 PM 71.6 °F 61.0 °F 69% 30.01 in 10.0 mi Variable 4.6 mph - N/A   Mostly Cloudy
1:05 PM 73.4 °F 60.8 °F 65% 29.99 in 10.0 mi SW 6.9 mph - N/A Rain Light Rain
1:09 PM 73.4 °F 60.8 °F 65% 29.99 in 10.0 mi Variable 4.6 mph - N/A   Scattered Clouds
1:19 PM 73.4 °F 60.8 °F 65% 29.99 in 10.0 mi Variable 4.6 mph - N/A   Mostly Cloudy
1:58 PM 73.6 °F 61.2 °F 65% 30.00 in 10.0 mi WSW 8.1 mph - 0.00 in   Mostly Cloudy
2:13 PM 75.2 °F 60.8 °F 61% 29.98 in 10.0 mi Variable 2.3 mph - N/A   Scattered Clouds
2:58 PM 76.8 °F 60.8 °F 58% 29.98 in 10.0 mi WSW 8.1 mph - N/A   Clear
3:58 PM 77.2 °F 60.6 °F 56% 29.97 in 10.0 mi West 11.5 mph - N/A   Clear
4:58 PM 77.2 °F 60.8 °F 57% 29.98 in 10.0 mi WSW 8.1 mph - N/A   Partly Cloudy
5:58 PM 76.5 °F 60.8 °F 58% 29.97 in 10.0 mi WNW 10.4 mph - N/A   Clear
6:58 PM 75.6 °F 56.5 °F 51% 29.97 in 10.0 mi West 10.4 mph - N/A   Partly Cloudy
7:58 PM 72.0 °F 53.2 °F 52% 29.99 in 10.0 mi West 10.4 mph - N/A   Partly Cloudy
8:58 PM 65.8 °F 55.0 °F 68% 30.02 in 10.0 mi West 9.2 mph - N/A   Overcast
9:58 PM 61.0 °F 52.5 °F 74% 30.04 in 10.0 mi West 9.2 mph - N/A   Scattered Clouds
10:58 PM 59.7 °F 52.9 °F 78% 30.03 in 10.0 mi WNW 6.9 mph - N/A   Clear
11:58 PM 59.0 °F 52.9 °F 80% 30.04 in 10.0 mi WSW 4.6 mph - N/A   Mostly Cloudy